CHITOSE_(JASDF/CIV) current weather conditions

sailwx.info

Wind from 340 at 9 knots

Air temperature -6.0° C
Visibility: greater than 5.4 NM
Dewpoint -10.0° C
Present weather: Light snow showers.

Last reported at 2020-Jan-25 13:00 UTC.
Time now 2020-Jan-25 14:22 UTC

Location: N 42°48' E 141°40'.
View on Google Maps.

See reports from other nearby stations

  
Tides and Currents Weather Stations Pressure Air Temp Water Temp Dewpoint Dewpoint Depression Visibility Wind Speed Wind Dir Waves Ship Positions
date/time (UTC)wind fromknots sea level pressurealtimeterstation pressurevisibilityair tempwater tempwave heightnotes
2020-Jan-25 13:39 350 7 0.5-6.0 Snow showers.
2020-Jan-25 13:36 350 8 1.2-6.0 Light snow showers.
2020-Jan-25 13:30 350 9 1.7-6.0 Light snow showers.
2020-Jan-25 13:25 360 9 2.6-6.0 Light snow showers.
2020-Jan-25 13:00 340 9 5.4-6.0 Light snow showers.
2020-Jan-25 12:30 320 8 5.4-5.0 Light snow showers.
2020-Jan-25 12:00 310 6 5.4-5.0 Light snow showers.
2020-Jan-25 11:30 340 4 5.4-5.0
2020-Jan-25 11:00 010 4 5.4-6.0
2020-Jan-25 10:30 5.4-6.0
2020-Jan-25 10:00 010 4 5.4-7.0
2020-Jan-25 09:30 5.4-7.0
2020-Jan-25 09:00 030 2 5.4-7.0
2020-Jan-25 08:30 360 4 5.4-6.0
2020-Jan-25 08:00 330 9 5.4-5.0
2020-Jan-25 07:30 320 6 5.4-5.0
2020-Jan-25 07:00 330 8 5.4-5.0
2020-Jan-25 06:30 350 9 5.4-5.0
2020-Jan-25 06:00 350 12 5.4-5.0
2020-Jan-25 05:30 360 13 5.4-5.0
2020-Jan-25 05:00 360 13 5.4-5.0
2020-Jan-25 04:30 330 13 5.4-4.0
2020-Jan-25 04:00 340 13 5.4-3.0
2020-Jan-25 03:30 360 9 5.4-4.0
2020-Jan-25 03:00 010 8 5.4-5.0
2020-Jan-25 02:30 360 9 5.4-6.0
2020-Jan-25 02:00 350 13 5.4-6.0
2020-Jan-25 01:30 350 13 5.4-6.0
2020-Jan-25 01:00 350 13 5.4-6.0
2020-Jan-25 00:30 350 12 5.4-6.0
2020-Jan-25 00:00 350 8 5.4-7.0
2020-Jan-24 23:30 340 4 5.4-8.0
2020-Jan-24 23:00 350 2 5.4-10.0
2020-Jan-24 22:30 360 2 5.4-9.0
2020-Jan-24 22:00 360 2 5.4-9.0 Light snow showers.
2020-Jan-24 21:30 020 6 5.4-8.0 Light snow showers.
2020-Jan-24 21:19 350 6 5.4-8.0 Light snow showers.
2020-Jan-24 21:08 330 7 0.9-8.0 Light snow showers.
2020-Jan-24 21:00 320 6 0.5-7.0 Snow showers.
2020-Jan-24 20:41 320 5 0.5-7.0 Snow showers.
2020-Jan-24 20:30 310 5 0.8-7.0 Light snow showers.
2020-Jan-24 20:00 310 5 0.8-7.0 Light snow showers.
2020-Jan-24 19:30 320 11 0.5-7.0 Light snow showers.
2020-Jan-24 19:00 330 13 0.8-7.0 Light snow showers.
2020-Jan-24 18:30 330 12 0.8-7.0 Light snow showers.
2020-Jan-24 18:00 330 11 0.8-7.0 Light snow showers.
2020-Jan-24 17:30 340 13 1.1-7.0 Light snow showers.
2020-Jan-24 17:00 320 11 5.4-7.0 Light snow showers.
2020-Jan-24 16:30 320 11 5.4-7.0 Light snow showers.
2020-Jan-24 16:00 330 11 5.4-7.0 Light snow showers.
2020-Jan-24 15:30 330 6 5.4-11.0 Light snow showers.
2020-Jan-24 15:00 5.4-11.0 Light snow showers.
2020-Jan-24 14:30 5.4-11.0
2020-Jan-24 14:00 5.4-10.0
2020-Jan-24 13:30 5.4-9.0 Light snow showers.
2020-Jan-24 13:00 5.4-9.0 Light snow showers.
2020-Jan-24 12:30 330 4 5.4-8.0
2020-Jan-24 12:00 010 5 5.4-8.0
2020-Jan-24 11:30 030 2 5.4-8.0
2020-Jan-24 11:00 020 2 5.4-7.0
2020-Jan-24 10:30 360 4 5.4-6.0 Light snow showers.
2020-Jan-24 10:00 330 6 5.4-6.0 Light snow showers.
2020-Jan-24 09:30 320 8 5.4-6.0
2020-Jan-24 09:00 310 7 5.4-6.0
2020-Jan-24 08:30 340 7 5.4-6.0
2020-Jan-24 08:00 350 7 5.4-6.0
2020-Jan-24 07:30 340 11 5.4-5.0
2020-Jan-24 07:00 330 13 5.4-5.0
2020-Jan-24 06:30 330 15 5.4-4.0 Light snow showers.
2020-Jan-24 06:00 320 19 5.4-4.0 Light snow showers.
2020-Jan-24 05:30 330 14 5.4-3.0
2020-Jan-24 05:00 320 18 5.4-3.0
2020-Jan-24 04:30 330 18 5.4-2.0
2020-Jan-24 04:00 330 19 5.4-2.0
2020-Jan-24 03:30 300 17 5.4-1.0
2020-Jan-24 03:16 290 15 gusting 26 5.4-1.0
2020-Jan-24 03:00 300 15 5.4-1.0
2020-Jan-24 02:30 300 17 5.4-1.0 Light snow showers.
2020-Jan-24 02:11 300 18 5.4-0.0 Light snow showers.
2020-Jan-24 02:00 350 6 5.4-1.0
2020-Jan-24 01:30 330 4 2.7-1.0 Light snow showers.
2020-Jan-24 01:00 320 5 1.7-3.0 Light snow showers.
2020-Jan-24 00:39 320 1 1.3-4.0 Light snow showers.
2020-Jan-24 00:30 0.9-4.0 Light snow showers.
2020-Jan-24 00:19 0.8-5.0 Light snow showers.
2020-Jan-24 00:00 0.9-5.0 Light snow showers.
2020-Jan-23 23:34 040 4 1.7-6.0 Light snow showers.
2020-Jan-23 23:30 040 4 2.4-6.0 Light snow showers.
2020-Jan-23 23:23 020 5 1.7-6.0 Light snow showers.
2020-Jan-23 23:13 030 5 1.3-6.0 Light snow showers.
2020-Jan-23 23:05 020 5 1.2-6.0 Light snow showers.
2020-Jan-23 23:00 010 2 1.3-7.0 Light snow showers.
2020-Jan-23 22:30 220 4 5.4-8.0 Light snow showers.
2020-Jan-23 22:00 190 6 5.4-10.0 Light snow showers.
2020-Jan-23 21:30 170 6 5.4-11.0
2020-Jan-23 21:00 180 6 5.4-11.0
2020-Jan-23 20:30 140 2 5.4-12.0
2020-Jan-23 20:00 210 5 5.4-11.0 Partial fog.
2020-Jan-23 19:30 5.4-12.0 Partial fog.
2020-Jan-23 19:00 160 2 5.4-11.0 Partial fog.
2020-Jan-23 18:30 190 2 5.4-12.0 Partial fog.
2020-Jan-23 18:00 5.4-11.0 Partial fog.
2020-Jan-23 17:30 100 0 5.4-12.0 Partial fog.
2020-Jan-23 17:00 230 0 5.4-10.0 Partial fog.
2020-Jan-23 16:30 5.4-10.0 Partial fog.
2020-Jan-23 16:00 010 1 5.4-10.0 Partial fog.
2020-Jan-23 15:30 5.4-10.0 Partial fog.
2020-Jan-23 15:00 5.4-10.0
2020-Jan-23 14:30 340 5 5.4-9.0
2020-Jan-23 14:00 330 2 5.4-8.0